{"data":{"norad_id":68569,"epoch":"2026-05-25T04:00:03.998880Z","epoch_age_seconds":56538,"freshness":"FRESH","line1":"1 68569U 26070AD  26145.16671295 -.02370926  00000+0 -65705-1 0  9998","line2":"2 68569  53.1602   6.5665 0000365  94.1320 315.7887 15.40043579  6018","mean_motion":15.40043579,"eccentricity":3.65e-5,"inclination_deg":53.1602,"raan_deg":6.5665,"arg_perigee_deg":94.132,"mean_anomaly_deg":315.7887,"bstar":-0.065705,"rev_number":601,"period_min":93.503847529759,"perigee_km":445.73149880611,"apogee_km":446.22965938939,"semimajor_km":6824.1175790978,"source":"CELESTRAK","updated_at":"2026-05-25T13:38:21.965510Z"}}